Tracking 26544 objects as of 9-Dec-2022
HD Live streaming from Space Station
objects crossing your sky now

ATLAS 5 CENTAUR DEB

Track ATLAS 5 CENTAUR DEB now!


NORAD ID: 49377
Int'l Code: 2018-079GE
Perigee: 8,029.5 km
Apogee: 35,321.2 km
Inclination: 10.8 °
Period: 779.1 minutes
Semi major axis: 28046 km
RCS: Unknown
Launch date: October 17, 2018
Source: United States (US)
Launch site: AIR FORCE EASTERN TEST RANGE (AFETR)

Note: This is SATELLITE DEBRIS
aabbcc
Your satellite tracking list
Your tracking list is empty




NASA's NSSDC Master Catalog

Two Line Element Set (TLE):
1 49377U 18079GE  22329.04640356 -.00000050  00000-0  00000-0 0  9997
2 49377  10.7861 154.2320 4865475  98.0488 317.8899  1.84836989  8366
Source of the keplerian elements: AFSPC